User: anonymous   Login
Location: Pulvis Stellarum Observatory
(41.6962°N, 71.4263°W)
Time: 21:20:27
(UTC-04:00)
Language:

Cosmos 1758 - Orbit

View from above orbital plane
View from above orbital plane
View from above satellite
View from above satellite

Ground track
Ground track

The orbit data is extracted from the following two-line orbital elements,

1 16791U 86046A   16145.78422232  .00000300  00000-0  19580-4 0  9995
2 16791  82.4723  50.3767 0016050 335.9870  24.0605 15.03999890627293
Epoch (UTC): 24 May 2016 18:49:16
Eccentricity: 0.0016050
inclination: 82.4723°
perigee height: 543 km
apogee height: 566 km
right ascension of ascending node: 50.3767°
argument of perigee: 335.9870°
revolutions per day: 15.03999890
mean anomaly at epoch: 24.0605°
orbit number at epoch: 62729

The dashed part of the orbit path shows where the satellite is in the earth's shadow,  

DLR